Regional Weather Roundup
Issued by NWS Grand Forks, ND

Home | Current Version | Previous Version | Text Only | Print | Product List | Glossary Off
Versions: 1 2 3 4 5 6 7 8 9 10 11 12 13 14 15 16 17 18 19 20 21 22 23 24 25 26 27 28 29 30 31 32 33 34 35 36 37 38 39 40 41 42 43 44 45 46 47 48 49 50

000
ASUS43 KFGF 020110
RWRFGF
PRAIRIE TO PINES  WEATHER ROUNDUP
NATIONAL WEATHER SERVICE EASTERN NORTH DAKOTA/GRAND FORKS ND
800 PM CDT MON JUN 01 2015

 **SATELLITE DATA USED TO AUGMENT SKY COVER AT AUTOMATED STATIONS**
 *****  WEATHER ACROSS EASTERN NORTH DAKOTA  *****

CITY           SKY/WX    TMP DP  RH WIND       PRES   REMARKS
GRAND FORKS    MOSUNNY   72  48  42 S22G33    29.89F
GRAND FRKS AFB SUNNY     73  49  44 S21G29    29.88F
GRAND FRKS NWS   N/A     70 N/A N/A S22         N/A
DEVILS LAKE    MOSUNNY   75  55  50 S14       29.81F
FARGO          SUNNY     73  47  39 SE22G31   29.92F
WAHPETON ARPT  MOCLDY    70  46  43 SE15      29.96S
$$

 ***** WEATHER ACROSS CENTRAL AND WESTERN NORTH DAKOTA  *****

CITY           SKY/WX    TMP DP  RH WIND       PRES   REMARKS
BISMARCK       MOSUNNY   80  61  52 S13       29.79F
MINOT          LGT RAIN  77  60  55 S10       29.72F
JAMESTOWN      MOSUNNY   76  59  55 S17       29.84F
MINOT AFB      PTSUNNY   76  66  69 SW15      29.72F
GARRISON         N/A     77  58  51 S12       29.76S
WILLISTON      MOSUNNY   85  54  34 N14       29.74S
DICKINSON      SUNNY     79  61  53 S12       29.77F
HETTINGER      MOSUNNY   78  61  55 SE10      29.81F
$$

 *****  OTHER AIRPORT OBSERVATIONS IN OUR AREA  *****

CITY           SKY/WX    TMP DP  RH WIND       PRES   REMARKS
WALHALLA       FAIR      72  52  49 MISG      29.86S
GRAFTON AIRPOR FAIR      72  50  46 S21       29.89F
VALLEY CITY AR FAIR      75  55  50 S16G26    29.88F
CANDO          FAIR      73  55  53 S15G23    29.80F
CAVALIER APRT  FAIR      72  50  46 S20       29.86F
GWINNER        NOT AVBL
SHEYENNE NWR     N/A     75  52  44 S14       29.95S
ROLLA          MOCLDY    72  55  56 N17G23    29.84R
 ***** THE ABOVE OBSERVATIONS ARE NON NWS ARE NOT QUALITY
       CONTROLLED AND MAY MIS-REPORT RAIN FOR SNOW...
$$

  *****  WEATHER ACROSS NORTHERN MINNESOTA  *****

CITY           SKY/WX    TMP DP  RH WIND       PRES   REMARKS
FLAG ISLAND    PTSUNNY   61  52  72 S14       29.99S
WARROAD        PTSUNNY   64  50  59 SE13      29.99F
ROSEAU         CLOUDY    68  46  45 S12       29.97F
HALLOCK        MOSUNNY   70  45  40 S20G26    29.90F
THF RVR FALLS  MOSUNNY   68  45  42 S16G22    29.97F
BAUDETTE       CLOUDY    65  40  39 S13       30.02S
WASKISH        CLOUDY    64  43  45 SE7       30.04S
CROOKSTON      SUNNY     70  46  43 S20G28    29.94F
STEPHEN NDAWN    N/A     70  46  43 S17         N/A
GREENBUSH NDAW   N/A     66  46  48 S13         N/A
$$
  *****  WEATHER ACROSS CENTRAL AND WEST MINNESOTA  *****

CITY           SKY/WX    TMP DP  RH WIND       PRES   REMARKS
FOSSTON        CLOUDY    66  46  48 S13G18    30.00F
BEMIDJI        MOCLDY    64  41  42 S9        30.04S
PARK RAPIDS    MOCLDY    67  42  40 S14       30.05F
ELBOW LAKE     FAIR      70  46  42 SE20      29.99F
WADENA         MOCLDY    66  45  45 SE13G20   30.05F
DETROIT LAKES  CLEAR     68  45  42 S20G26    30.01F
MOORHEAD       SUNNY     72  45  37 S20G30    29.94F
FERGUS FALLS   CLEAR     72  45  37 S20G25    29.99S
MORRIS MN      PTCLDY    72  46  40 SE18G24   29.99F
STAPLES        MOCLDY    64  39  39 SE10G17   30.07F
$$
  *****  WEATHER ELSEWHERE ACROSS MINNESOTA  *****

CITY           SKY/WX    TMP DP  RH WIND       PRES   REMARKS
DULUTH         PTCLDY    54  32  43 E13       30.15F
INTRNTL FALLS  CLOUDY    66  38  35 VRB5      30.04F
ELY            CLEAR     63  36  36 S9        30.13S
CLOQUET        PTCLDY    52  32  46 E6        30.16S
WHEATON        PTCLDY    72  46  40 SE15      29.98F
BRAINERD       PTCLDY    64  35  34 S12       30.10F
HIBBING        CLOUDY    64  37  36 S8        30.11S
ALEXANDRIA     CLEAR     68  42  38 SE15      30.05F
SAINT CLOUD    PTCLDY    66  37  34 SE12      30.10F
MINNEAPOLIS    MOCLDY    67  39  35 SE9       30.13S
$$

  *****  WEATHER ACROSS SOUTH DAKOTA  *****

CITY           SKY/WX    TMP DP  RH WIND       PRES   REMARKS
SIOUX FALLS    PTCLDY    73  49  42 S15       30.01S
BROOKINGS      CLEAR     73  48  40 S15       30.01S
WATERTOWN      PTCLDY    73  48  41 S15G22    29.97F
HURON          MOSUNNY   78  57  48 S18       29.91F
SISSETON         N/A     76  49  38 S14       29.94F
ABERDEEN       MOSUNNY   78  58  49 S17G25    29.88F
MITCHELL       CLEAR     79  57  46 S18       29.94F
PIERRE         MOSUNNY   79  62  56 SE16      29.82F
MOBRIDGE       SUNNY     82  62  50 SE13      29.78F
RAPID CITY     PTSUNNY   77  59  53 SE10      29.81R
$$

  *****  SOME WEATHER IN NEARBY STATES *****

CITY           SKY/WX    TMP DP  RH WIND       PRES   REMARKS
GLASGOW MT     MOSUNNY   78  50  37 NE16      29.77F
GREAT FALLS MT TSTM      57  54  89 SW18G25   29.91R
CHEYENNE WY    CLOUDY    67  47  48 W6        30.05F
SCOTTSBLUFF NE CLOUDY    71  59  65 E7        29.91R
OMAHA NE       PTCLDY    71  51  49 SE12      30.06F
DES MOINES IA  PTCLDY    69  50  50 S13       30.11S
DAVENPORT IA   CLEAR     65  45  48 E7        30.16S
CHICAGO IL     PTCLDY    53  34  48 NE10      30.21S
EAU CLAIRE WI  PTCLDY    65  40  39 S8        30.16S
LA CROSSE WI   CLEAR     67  38  34 SE6       30.16S
$$

  *****  SOME NATIONAL WEATHER *****

CITY           SKY/WX    TMP DP  RH WIND       PRES   REMARKS
LA GUARDIA NY  DRIZZLE   54  52  93 NE17      30.14R FOG
RALEIGH NC     CLOUDY    70  68  93 CALM      30.01S
ATLANTA GA     CLOUDY    73  66  78 CALM      30.03R
NEW ORLEANS LA LGT RAIN  76  68  76 SE9       29.99R
OKLAHOMA CITY  PTCLDY    77  62  59 S7        30.01S
ALBUQUERQUE NM CLOUDY    81  37  20 SW9       30.08F
SALT LAKE CITY PTSUNNY   76  47  35 N18G28    29.82R
LOS ANGELES CA MOSUNNY   64  56  75 W13       29.98F
BOISE ID       PTSUNNY   81  40  23 SE12      29.75F
SEATTLE WA     CLOUDY    58  51  78 SW7       29.94S
$$

*** WEATHER ACROSS MANITOBA...SASKATCHEWAN AND ONTARIO ***
                ***ONTARIO***

CITY           SKY/WX    TMP DP  RH WIND       PRES   REMARKS
GERALDTON      PTCLDY    59  28  31 SW7       30.21R
THUNDER BAY    MOCLDY    50  32  50 E14       30.21F
SIOUX LOOKOUT  MOCLDY    64  37  36 S6        30.04F
TORONTO        MOCLDY    54  46  76 SE3       30.20S
BIG TROUT LK   CLEAR     57  34  41 S9        29.95F
PICKLE LAKE    MOCLDY    64  25  22 S9        30.04F
DRYDEN         PTCLDY    66  36  32 S10G18    30.04S
KENORA         CLOUDY    63  43  48 SW10      30.01S
$$
                *** MANITOBA***

CITY           SKY/WX    TMP DP  RH WIND       PRES   REMARKS
BRANDON        PTSUNNY   66  59  77 SE10      29.80F
DAUPHIN        MOSUNNY   75  57  53 SW9       29.77F
ISLAND LAKE    PTSUNNY   63  48  59 S14G24    29.82S
PILOT MOUND      N/A     70  54  56 SE16G28     N/A
THE PAS        PTSUNNY   66  45  45 NW10      29.74R
THOMPSON       PTSUNNY   55  54  94 SW5       29.68R
WINNIPEG       PTSUNNY   68  50  52 S18G26    29.88F
LYNN LAKE      CLOUDY    50  43  76 W12G23    29.73R
CHURCHILL      LGT RAIN  52  48  87 S12G21    29.59F
GILLAM         MOSUNNY   55  46  71 S16       29.67F
$$
                ***SASKATCHEWAN***

CITY           SKY/WX    TMP DP  RH WIND       PRES   REMARKS
ESTEVAN        MOSUNNY   77  54  44 N15       29.78R
KINDERSLEY     PTSUNNY   72  41  33 N10       29.90S
LLOYDMINSTER   MOSUNNY   63  43  48 N17       29.95R
PRINCE ALBERT  MOSUNNY   64  46  52 NW16G22   29.89R
REGINA         MOSUNNY   73  43  33 NW14      29.85S
YORKTON        SUNNY     73  46  38 NW15G21   29.80S
N. BATTLEFORD  SUNNY     66  48  52 N13G20    29.93F
LA RONGE       PTSUNNY   55  39  54 NW18G26   29.89R
SASKATOON      MOSUNNY   70  45  40 N16       29.91R
SWIFT CURRENT  SUNNY     72  36  26 N13G18    29.89S
$$
NOTE: THESE ARE AUTOMATED STATIONS WITH LIMITED QUALITY CONTROL
      "FAIR" INDICATES FEW OR NO CLOUDS BELOW 12,000 FEET WITH NO
      SIGNIFICANT WEATHER AND/OR OBSTRUCTIONS TO VISIBILITY.
      SKY/WX - SKY CONDITION AND SIGNIFICANT WEATHER.
      TMP - AIR TEMPERATURE.    DP   - DEWPOINT TEMPERATURE.
      RH  - RELATIVE HUMIDITY.  PRES - PRESSURE.
      HX  - HEAT INDEX.         WCI  - WIND CHILL INDEX.
$



USA.gov is the U.S. government's official web portal to all federal, state and local government web resources and services.